Theta_e
336 335 335 333 331 326 324 323 322 322 319 317 316 313 311 311 309 307 305 301 298 295 293 291 291 291 291 291 291 290 289 289 289 288 289 293 293 293
336 336 336 335 332 328 323 320 323 323 324 317 318 313 312 310 310 307 306 303 302 299 295 293 292 291 291 291 291 291 291 290 289 288 287 288 290 291
336 336 336 335 334 330 322 317 319 322 323 320 317 313 312 310 309 307 307 304 302 301 299 294 293 292 292 291 292 291 291 291 290 289 288 288 288 288
337 335 336 335 333 330 322 317 317 318 319 320 316 313 313 311 309 307 307 306 305 304 302 299 296 294 292 292 292 292 291 291 291 290 290 289 288 287
337 336 334 334 332 330 324 319 316 316 316 316 318 316 313 312 311 308 308 306 305 304 302 300 299 296 294 293 292 292 292 291 291 291 290 290 288 287
336 336 334 332 331 329 326 321 317 314 313 315 320 316 314 311 310 310 309 308 307 304 301 300 299 298 296 294 293 292 292 292 291 291 291 291 289 288
336 335 334 332 331 329 326 321 317 315 316 319 316 316 312 311 309 310 310 309 306 306 304 301 299 298 298 298 297 296 294 293 292 291 291 291 289 287
333 332 331 330 329 328 326 323 321 317 317 317 317 314 314 312 310 310 309 309 308 306 304 304 303 301 300 299 298 297 296 294 292 291 290 289 288 287
330 329 328 327 326 326 322 319 317 317 318 314 314 313 313 313 311 310 309 308 307 305 305 303 301 300 299 299 297 295 294 291 289 289 289 288 287 287
328 328 325 324 322 322 319 316 317 317 312 311 312 313 312 311 310 309 308 306 306 303 301 301 300 300 300 299 297 296 294 292 289 288 288 288 287 287
325 324 323 320 320 319 316 314 312 311 310 310 308 309 308 307 307 306 306 305 305 303 300 299 300 300 300 297 296 295 293 289 288 289 288 289 290 291
321 320 319 317 317 318 314 312 307 304 305 305 302 303 303 303 303 303 303 304 304 304 302 299 300 299 297 297 299 296 295 296 295 294 294 294 293 292
317 315 313 312 312 308 310 308 304 304 302 300 299 298 297 297 297 299 301 301 302 303 301 299 298 297 295 295 294 295 296 296 296 295 295 295 294 293
311 309 308 308 308 309 308 305 303 302 298 300 301 300 300 299 297 297 299 300 300 300 300 296 296 296 296 296 296 295 296 296 295 295 295 295 295 294
310 309 306 306 305 304 302 300 300 300 298 300 300 300 300 300 300 299 298 297 297 296 295 295 293 293 293 294 295 295 295 295 296 296 296 295 295 295
305 304 304 303 302 301 300 299 299 298 297 299 301 301 299 299 299 298 296 295 295 294 293 292 292 293 293 293 294 295 296 297 297 297 297 297 296 295
302 300 300 299 297 297 296 295 296 296 297 297 299 299 298 297 297 296 295 295 295 296 296 296 295 294 293 293 294 295 296 297 297 297 296 296 296 295
300 297 296 295 295 294 294 294 295 296 295 295 296 297 296 295 295 295 295 295 296 297 298 298 297 296 295 294 294 294 295 295 296 296 296 295 294 294
297 296 296 296 295 295 295 295 295 295 295 296 296 296 297 297 296 296 295 295 295 296 297 296 293 293 293 294 294 294 294 294 294 293 294 294 294 294
297 297 296 296 296 296 295 295 296 295 295 294 294 294 294 293 293 293 294 294 296 294 293 293 294 293 293 293 292 292 293 292 292 293 294 293 293 292
297 297 297 297 297 296 296 295 295 295 295 296 295 294 292 292 293 293 293 293 292 292 293 294 295 295 293 292 290 291 292 293 293 293 293 293 291 290
295 295 296 296 297 297 296 296 295 294 295 295 296 295 295 295 295 295 295 294 294 294 294 294 293 293 293 292 291 291 292 293 292 292 292 292 290 290
296 297 297 297 297 297 296 295 296 296 295 297 296 297 296 294 296 296 295 294 293 292 292 292 292 292 291 291 291 291 291 291 292 292 292 293 291 289
Wind_Speed
25 23 23 20 17 16 16 16 12 5 7 19 11 20 19 18 18 20 19 17 18 17 17 17 15 14 13 12 11 12 13 11 13 13 13 15 16 16
24 24 24 22 19 17 16 18 20 12 3 7 21 16 19 17 19 19 16 19 18 17 19 18 18 16 16 15 15 15 15 14 15 15 15 17 18 17
25 25 26 25 21 19 17 20 22 20 14 7 15 14 17 17 17 18 17 18 17 21 20 20 19 19 18 18 18 19 19 17 17 18 19 19 20 18
26 25 25 24 23 19 19 21 23 26 16 16 14 17 15 19 19 18 18 17 16 18 16 18 21 21 20 20 21 22 22 21 20 21 21 21 22 21
27 26 26 23 24 24 22 20 24 24 26 18 15 18 14 16 18 18 16 17 16 17 17 18 19 20 21 21 22 23 23 23 24 24 23 24 24 23
27 27 27 27 28 28 24 22 21 21 27 21 18 15 17 17 17 18 17 15 16 15 18 17 16 18 20 21 23 23 23 24 25 26 26 26 26 25
27 26 27 29 31 30 29 27 27 26 23 20 18 19 17 17 20 17 16 14 17 17 16 16 17 16 17 15 16 16 18 20 22 24 25 26 25 25
24 24 27 28 30 32 33 32 33 33 27 24 20 18 19 18 17 16 14 13 9 16 17 16 15 16 15 15 16 15 20 21 23 23 24 24 24 23
23 23 25 29 33 35 34 33 29 27 21 22 16 16 15 18 16 16 15 13 13 9 14 11 10 13 12 12 16 18 20 22 22 22 22 22 23 25
23 24 26 30 32 33 35 33 31 28 23 19 15 13 16 13 15 14 13 13 10 8 8 5 10 12 11 12 15 19 19 19 20 19 20 21 23 27
23 24 28 30 29 33 35 34 27 27 27 22 17 13 15 14 14 12 13 13 9 7 10 7 7 9 14 17 13 15 17 15 15 19 21 23 25 25
23 22 25 27 28 32 37 37 26 20 21 20 21 20 18 18 18 14 14 13 10 7 10 8 5 4 5 6 6 8 14 16 17 21 20 24 25 25
20 22 22 23 21 31 28 23 20 20 16 20 18 16 14 14 17 18 11 11 10 9 7 11 5 5 5 6 12 11 13 14 15 18 20 24 22 21
23 22 18 18 27 26 22 20 16 13 18 18 18 16 14 13 12 15 11 9 8 6 10 11 5 8 9 11 10 10 15 17 19 22 20 22 24 22
17 17 21 24 23 23 22 20 19 19 24 20 16 15 14 11 10 10 9 10 6 6 10 10 13 12 12 13 16 19 20 19 22 22 19 19 26 24
15 22 24 24 24 23 22 19 20 18 19 16 11 11 11 11 12 10 10 10 8 10 11 11 12 12 14 15 15 21 19 15 20 23 24 24 24 23
22 24 24 23 21 20 18 19 18 16 13 12 11 13 12 11 11 12 10 10 8 7 9 10 10 11 14 15 17 21 20 21 22 24 23 24 24 23
21 20 18 19 20 21 17 16 15 14 12 10 10 12 11 12 13 11 10 12 9 9 8 7 7 9 14 20 22 25 23 23 23 23 23 24 24 23
13 16 18 19 19 20 20 17 15 13 13 14 13 12 9 10 13 13 14 13 12 12 11 11 13 12 7 6 11 14 22 22 20 24 23 22 24 24
12 12 14 13 15 16 15 15 14 14 14 13 12 10 10 13 14 16 16 14 12 13 16 15 10 12 12 5 4 16 21 22 21 22 23 23 23 24
12 12 10 12 13 12 12 12 12 11 12 13 13 14 16 16 16 15 13 13 12 10 9 9 11 12 11 11 10 17 19 17 18 23 26 23 20 21
6 9 10 10 11 12 11 11 10 9 9 11 10 11 12 11 12 10 9 8 9 9 10 11 14 14 14 14 17 18 19 19 20 24 23 24 21 7
7 7 7 8 8 10 11 10 11 9 8 7 6 7 10 11 9 8 8 9 9 9 9 12 13 11 14 15 19 20 21 22 21 21 22 19 20 23
Wind_Direction
219 218 216 220 214 204 210 201 164 187 205 208 196 210 211 212 214 220 215 232 230 232 232 233 235 237 245 253 261 272 276 280 284 294 295 297 298 307
214 216 216 221 218 205 208 207 200 179 196 196 207 196 202 209 213 210 213 222 237 238 235 239 239 241 245 254 260 266 274 280 283 290 295 300 302 299
213 215 214 215 217 206 208 211 207 202 211 208 184 190 194 202 212 207 212 220 230 237 238 239 242 245 247 254 261 266 271 278 283 286 290 297 302 297
213 215 217 213 214 213 208 213 210 210 197 213 190 189 193 202 205 206 208 220 222 242 245 244 245 247 249 254 261 264 269 272 278 284 287 291 296 297
214 214 215 211 208 210 209 214 209 211 211 202 206 207 205 201 208 205 210 214 226 237 243 243 249 251 253 257 262 265 268 274 276 277 284 288 290 295
216 215 214 210 211 211 210 214 208 208 210 211 224 199 201 199 208 208 209 214 222 227 240 247 254 257 258 259 260 261 268 272 274 273 278 284 286 293
215 214 218 216 216 213 205 207 205 201 197 203 205 211 194 200 204 214 214 210 219 226 227 232 245 259 270 269 269 274 272 273 273 273 276 279 281 291
213 215 224 225 226 223 220 226 221 198 196 201 203 208 208 208 202 215 208 208 207 216 224 238 239 247 254 254 268 274 278 279 278 277 278 278 282 285
220 222 220 227 229 225 224 216 208 208 205 201 195 206 218 217 210 208 210 205 213 188 203 233 235 241 255 263 264 266 270 273 276 279 280 281 283 291
222 219 222 228 232 227 217 207 208 205 192 186 207 223 224 223 207 211 206 206 218 180 181 252 244 251 251 260 269 274 279 281 279 279 282 285 283 295
229 224 229 232 238 232 214 204 189 191 198 193 198 209 215 208 199 199 194 193 190 209 215 229 245 258 257 263 265 275 280 284 284 286 288 291 295 300
220 225 227 228 236 228 204 193 173 183 190 180 200 207 205 206 202 194 191 191 197 185 211 191 223 240 290 289 263 267 295 292 293 296 300 303 304 293
225 232 232 224 226 194 194 179 169 172 185 197 197 197 195 200 200 200 202 202 212 217 201 192 215 235 248 294 295 289 283 283 285 289 294 297 302 294
217 220 219 208 188 186 174 166 171 179 180 184 174 174 180 195 205 210 204 203 217 214 225 200 229 224 242 270 279 288 292 291 294 293 292 296 298 302
213 215 185 172 166 167 162 164 175 181 180 175 174 182 186 188 184 188 191 205 208 220 219 229 234 240 250 262 276 287 298 298 295 291 294 293 295 300
191 175 173 167 172 171 166 174 189 185 183 173 177 179 175 175 182 191 201 205 217 236 237 237 236 239 251 259 273 282 288 289 296 298 299 297 292 291
164 161 160 163 161 169 173 172 177 175 181 177 178 166 166 184 195 195 195 202 214 219 221 225 242 241 244 256 266 270 282 286 290 293 296 295 291 289
156 154 152 159 159 165 176 176 177 180 185 177 190 188 186 193 198 193 194 209 225 237 247 242 242 271 274 262 259 270 279 284 291 297 293 288 286 286
154 156 158 169 175 178 177 182 183 192 192 185 194 197 197 186 201 205 207 209 224 236 239 246 277 277 257 261 272 269 268 280 289 293 290 283 280 284
141 150 158 167 174 182 184 183 187 199 205 199 206 219 236 233 222 225 226 226 231 238 264 282 272 261 248 261 266 274 284 282 284 286 292 291 286 287
125 133 150 153 157 173 184 193 199 208 218 217 219 224 224 231 235 236 238 240 246 249 252 265 279 282 272 275 277 287 299 290 284 291 292 291 297 294
128 141 142 145 145 146 163 174 177 194 213 228 221 231 226 222 230 233 238 241 245 254 261 276 281 278 269 266 274 287 295 299 294 304 295 279 270 271
143 143 152 150 160 161 164 171 175 184 193 208 209 219 232 222 234 245 244 238 244 256 268 276 273 277 280 280 278 282 290 296 303 303 299 299 289 290